{"data":{"norad_id":52294,"intl_designator":"2022-041AK","name":"STARLINK-3777","alt_names":[],"object_type":"PAYLOAD","status":"ACTIVE","operator":null,"country":"US","launch_date":"2022-04-21","launch_site_code":"AFETR","launch_vehicle":null,"mission":null,"orbit_class":"UNKNOWN","rcs_meters":null,"size_class":null,"mass_kg":null,"dimensions":null,"purposes":["comms"],"wikipedia_slug":null,"has_3d_model":false,"image_url":null,"decayed_at":null,"tle_current":{"epoch":"2026-05-25T04:29:17.238048Z","epoch_age_seconds":55401,"freshness":"FRESH","line1":"1 52294U 22041AK  26145.18700507  .00000572  00000+0  54032-4 0  9998","line2":"2 52294  53.2135 115.7081 0001157  73.6402 286.4718 15.08842103226055","mean_motion":15.08842103,"eccentricity":0.0001157,"inclination_deg":53.2135,"raan_deg":115.7081,"arg_perigee_deg":73.6402,"mean_anomaly_deg":286.4718,"bstar":5.4032e-5,"rev_number":22605,"period_min":95.437421658428,"perigee_km":538.93656292461,"apogee_km":540.53735895917,"semimajor_km":6917.8739609419,"source":"CELESTRAK","updated_at":"2026-05-25T13:38:17.086540Z"}}}